Estación de Odessa
Ultimos registro cada 15 minutos 21
| N° | Estación | Fecha / Hora | Temperatura | Humedad | Lluvia | Velocidad | Dirección | Radiación | Presion |
| 21 | Odessa | 04-05-2026 05:00 | 8,8 | 91 | 0 | 0 | 83 | 0 | 1017,7 |
| 20 | Odessa | 04-05-2026 04:45 | 9,3 | 91 | 0 | 0 | 83 | 0 | 1017,6 |
| 19 | Odessa | 04-05-2026 04:30 | 9,6 | 91 | 0 | 0 | 83 | 0 | 1017,6 |
| 18 | Odessa | 04-05-2026 04:15 | 9,7 | 90 | 0 | 0 | 83 | 0 | 1017,9 |
| 17 | Odessa | 04-05-2026 04:00 | 9,8 | 90 | 0 | 0 | 83 | 0 | 1017,9 |
| 16 | Odessa | 04-05-2026 03:45 | 10,1 | 89 | 0 | 0 | 83 | 0 | 1017,7 |
| 15 | Odessa | 04-05-2026 03:30 | 10,3 | 89 | 0 | 0 | 83 | 0 | 1017,7 |
| 14 | Odessa | 04-05-2026 03:15 | 10,7 | 88 | 0 | 0 | 118 | 0 | 1017,8 |
| 13 | Odessa | 04-05-2026 03:00 | 10,6 | 88 | 0 | 0 | 118 | 0 | 1018,1 |
| 12 | Odessa | 04-05-2026 02:45 | 10,3 | 88 | 0 | 0 | 114 | 0 | 1018,3 |
| 11 | Odessa | 04-05-2026 02:30 | 10,3 | 87 | 0 | 0,4 | 137 | 0 | 1018,6 |
| 10 | Odessa | 04-05-2026 02:15 | 10,4 | 86 | 0 | 0 | 20 | 0 | 1018,7 |
| 9 | Odessa | 04-05-2026 02:00 | 10,6 | 86 | 0 | 0 | 20 | 0 | 1018,9 |
| 8 | Odessa | 04-05-2026 01:45 | 10,7 | 85 | 0 | 0 | 20 | 0 | 1018,7 |
| 7 | Odessa | 04-05-2026 01:30 | 10,9 | 84 | 0 | 0 | 20 | 0 | 1018,6 |
| 6 | Odessa | 04-05-2026 01:15 | 11,1 | 83 | 0 | 0 | 20 | 0 | 1018,7 |
| 5 | Odessa | 04-05-2026 01:00 | 11,4 | 82 | 0 | 0 | 20 | 0 | 1018,7 |
| 4 | Odessa | 04-05-2026 00:45 | 11,6 | 82 | 0 | 0 | 78 | 0 | 1018,9 |
| 3 | Odessa | 04-05-2026 00:30 | 12 | 81 | 0 | 0 | 108 | 0 | 1019 |
| 2 | Odessa | 04-05-2026 00:15 | 12,1 | 82 | 0 | 0 | 124 | 0 | 1019,2 |
| 1 | Odessa | 04-05-2026 00:00 | 11,8 | 84 | 0 | 0,9 | 113 | 0 | 1019,4 |